Regional Weather Roundup
Issued by NWS

Home | Current Version | Previous Version | Graphics & Text | Print | Product List | Glossary On
Versions: 1 2 3 4 5 6 7 8 9 10 11 12 13 14 15 16 17 18 19 20 21 22 23 24 25 26 27 28 29 30 31 32 33 34 35 36 37 38 39 40 41 42 43 44 45 46 47 48 49 50
000
ASUS43 KMKX 070411
RWRWI

WISCONSIN REGIONAL WEATHER ROUNDUP
NATIONAL WEATHER SERVICE MILWAUKEE/SULLIVAN WI
1100 PM CDT MON JUL 06 2015

NOTE: "FAIR" INDICATES FEW OR NO CLOUDS BELOW 12,000 FEET WITH NO
SIGNIFICANT WEATHER AND/OR OBSTRUCTIONS TO VISIBILITY.

WIZ001-002-006>008-014>016-023>028-070500-
NORTHWEST WISCONSIN

CITY           SKY/WX    TMP DP  RH WIND       PRES   REMARKS
SUPERIOR ARPT  MOCLDY    57  46  65 N5        30.05R
ASHLAND        CLOUDY    58  51  78 N13G22    30.01R
HAYWARD        CLOUDY    59  50  72 N8        30.01S
SIREN          CLEAR     56  48  75 NW6       30.04R
CUMBERLAND     PTCLDY    55  48  76 N13       30.01S
RICE LAKE      PTCLDY    59  51  73 NW7       30.02R
CHETEK         CLOUDY    63  55  77 N9G16     29.99S
LADYSMITH      CLOUDY    60  58  91 NW6       30.00S FOG
EAU CLAIRE     CLOUDY    60  57  89 CALM      29.97R FOG
MENOMONIE      CLOUDY    64  56  76 NW13      29.99R HAZE
NEW RICHMOND   MOCLDY    59  48  66 N12G18    30.03S
OSCEOLA        CLOUDY    60  47  62 N10       30.06R
$$

WIZ003>005-009-010-017-018-070500-
NORTH CENTRAL WISCONSIN

CITY           SKY/WX    TMP DP  RH WIND       PRES   REMARKS
MANITOWISH WTR CLOUDY    55  55 100 N6        29.98R FOG
ARBOR VITAE    PTCLDY    57  55  92 N6        29.96S FOG
WOODRUFF       PTCLDY    57  55  92 N6        29.96S FOG
RHINELANDER    CLOUDY    57  54  89 NW5       29.96S FOG
EAGLE RIVER    LGT RAIN  57  55  94 N6        29.96R
LAND O LAKES   CLOUDY    57  55  92 N8        29.97R FOG
PHILLIPS       CLEAR     54  54 100 CALM      29.98R FOG
TOMAHAWK         N/A     54  53  94 NW5       29.97S FOG
MEDFORD        CLEAR     55  55  97 N5        29.97S FOG
MERRILL          N/A     57  56  95 N6        29.96S FOG
$$

WIZ029-030-035-036-043>047-070500-
CENTRAL WISCONSIN

CITY           SKY/WX    TMP DP  RH WIND       PRES   REMARKS
WAUSAU         CLOUDY    61  56  83 NW8       29.93R HAZE
MOSINEE        CLOUDY    59  55  88 N9        29.95S FOG
MARSHFIELD     CLOUDY    59  55  87 N9        29.95R FOG
STEVENS POINT  CLOUDY    59  56  89 N5        29.94S FOG
WAUPACA        CLOUDY    64  58  82 N9        29.91R
WAUTOMA        CLOUDY    63  60  90 N14       29.91R
WISC RAPIDS    CLOUDY    62  55  77 N10       29.95R HAZE
CAMP DOUGLAS   CLOUDY    61  61 100 NW9       29.94R FOG
$$

WIZ011>013-019>022-031-037>040-048>050-070500-
NORTHEAST WISCONSIN

CITY           SKY/WX    TMP DP  RH WIND       PRES   REMARKS
ANTIGO         CLOUDY    58  55  91 N12       29.94S FOG
SHAWANO        CLOUDY    63  57  82 N9        29.91R HAZE
OCONTO         CLOUDY    59  59 100 N7        29.88R
STURGEON BAY   CLOUDY    61  54  77 N22G30    29.89R
GREEN BAY      CLOUDY    62  57  83 N16G26    29.87R HAZE
MANITOWOC      CLOUDY    63  61  93 MISG      29.84R
APPLETON       CLOUDY    63  61  94 N16G22    29.89R
CLINTONVILLE   CLOUDY    61  54  77 N9        29.90R HAZE
OSHKOSH        CLOUDY    63  60  90 N12       29.86R
$$

WIZ032>034-041-042-053>061-070500-
SOUTHWEST WISCONSIN

CITY           SKY/WX    TMP DP  RH WIND       PRES   REMARKS
LA CROSSE      CLOUDY    62  58  86 N7        29.96S FOG
SPARTA         CLOUDY    60  55  84 NW3       29.96S HAZE
VIROQUA        MOCLDY    60  56  87 N9        29.95F
BOSCOBEL       MOCLDY    65  58  78 N6        29.93S HAZE
PRAIRIE DU CHI MOCLDY    65  54  67 N12       29.94S HAZE
PLATTEVILLE    CLOUDY    64  61  88 N13G20    29.91S
$$

WIZ056-057-062-063-064-067-068-070500-
SOUTH CENTRAL WISCONSIN

CITY           SKY/WX    TMP DP  RH WIND       PRES   REMARKS
REEDSBURG      CLOUDY    62  59  89 NW7G16    29.92R
BARABOO/DELLS  CLOUDY    62  59  90 N6        29.91S
LONE ROCK      CLOUDY    65  58  78 NW9       29.91S HAZE
MINERAL POINT  CLOUDY    63  61  94 N15       29.91F
MADISON        LGT RAIN  65  63  93 NW10G18   29.87R
MIDDLETON      CLOUDY    65  63  93 NW9G18    29.89R
WATERTOWN      RAIN      73  73 100 SW8       29.82S
MONROE         RAIN      68  66  94 NW17G25   29.87S
JANESVILLE     DRIZZLE   72  70  94 W9        29.84S
$$

WIZ051-052-058>065-066-070>072-070500-
SOUTHEAST WISCONSIN

CITY           SKY/WX    TMP DP  RH WIND       PRES   REMARKS
MILWAUKEE      CLOUDY    74  69  85 SW9       29.82S
WAUKESHA       DRIZZLE   72  70  94 S3        29.83S
MILWAUKEE/TIMM LGT RAIN  73  70  88 SW3       29.82F
RACINE         CLOUDY    75  68  78 SW10      29.85R
BURLINGTON     HVY RAIN  71  68  90 SW10G16   29.85R
KENOSHA        LGT RAIN  74  69  85 SW17G28   29.86R
FOND DU LAC    HVY RAIN  65  63  93 N13       29.86R FOG
SHEBOYGAN      CLOUDY    75  70  84 NW8       29.81R
WEST BEND      RAIN      73  68  83 SW3       29.82S
JUNEAU         DRIZZLE   67  65  94 NW17G23   29.85R
$$

LSZ147-162-070500-
LAKE SUPERIOR

STATION/POSITION TIME  TEMP    WIND        PRES    WAVE
                       AIR SEA DIR/SP/G            HT/PER
                 (UTC) (F)     (DEG/KT/KT) (MB)    (FT/S)
W MID LAKE BUOY  0350   47 39  320/ 10/ 12 1015.7R   0
DEVILS ISLAND    0400   58     340/ 15/ 19 1016.6R
PORT WING        0300   61     350/ 18/ 20 1016.6R
SAXON HARBOR     0300   63     330/ 10/ 12 1014.9R
$$

LMZ867-665-643>646-070500-
LAKE MICHIGAN

STATION/POSITION TIME  TEMP    WIND        PRES    WAVE
                       AIR SEA DIR/SP/G            HT/PER
                 (UTC) (F)     (DEG/KT/KT) (MB)    (FT/S)
CHAMBERS ISLAND  0300   60     340/ 16/ 18 1011.5R
S GREEN BAY BUOY 0130   73 70  230/ 16/ 21 1009.3
N MID LAKE BUOY  0350   56 57  330/ 14/ 17 1010.0R   3/ 6
NORTHPORT PIER   0300   60     350/ 19/ 23 1010.8R
SISTER BAY       0314   58     360/ 14/ 22   N/A
ALGOMA LAKESHORE 0311          350/ 20/ 31   N/A
KEWAUNEE LAKESHO 0300   65     320/ 12/ 17 1009.3R
SHEBOYGAN LAKESH 0400   67     180/  8/  9 1009.4R
PORT WASHINGTON  0300   76     240/  3/  6 1009.8S
ATWATER BUOY     0400   68 59  180/  6/  6 1010.9F
MILWAUKEE LAKESH 0300   72     200/  8/  8   N/A
KENOSHA   LAKESH 0400   74     210/ 15/ 26 1010.8R
$$

TC  - TEMPERATURE IN CELSIUS
VSB - VISIBILITY IN STATUTE MILES
WCI - WIND CHILL INDEX
HX  - HEAT INDEX




USA.gov is the U.S. government's official web portal to all federal, state and local government web resources and services.